This demonstration page uses our WeatherBlox Daily Observations layout. Learn more.

Left ArrowRight Arrow

Hourly Observations for August 27, 2021

Temp ( °F °C ) Dew Point ( °F °C ) Humidity (%) Winds ( mph kmh ) Pressure ( in mb ) Visibility ( mi km ) Precip ( " mm )
12:59 am 00:59 Clear 82 27.8 72 22.2 72 72 SW 8 13 30.14 1021 8 13 0.00 0.00
1:59 am 01:59 Clear 81 27.2 71 21.7 72 72 SW 9 15 30.13 1020 8 13 0.00 0.00
2:59 am 02:59 Clear 80 26.7 72 22.2 76 76 SW 7 11 30.12 1020 8 13 0.00 0.00
3:59 am 03:59 Partly Cloudy 80 26.7 71 21.7 74 74 SW 5 7 30.12 1020 8 13 0.00 0.00
4:59 am 04:59 Partly Cloudy 79 26.1 72 22.2 79 79 SW 6 9 30.11 1020 8 13 0.00 0.00
5:59 am 05:59 Partly Cloudy 79 26.1 72 22.2 79 79 SW 7 11 30.12 1020 8 13 0.00 0.00
6:59 am 06:59 Mostly Sunny 79 26.1 72 22.2 79 79 SW 6 9 30.12 1020 7 11 0.00 0.00
7:59 am 07:59 Mostly Sunny 80 26.7 73 22.8 79 79 SW 7 11 30.13 1020 7 11 0.00 0.00
8:59 am 08:59 Mostly Sunny 82 27.8 73 22.8 74 74 SW 9 15 30.14 1021 7 11 0.00 0.00
9:59 am 09:59 Sunny 85 29.4 72 22.2 65 65 W 7 11 30.13 1020 7 11 0.00 0.00
10:59 am 10:59 Sunny 88 31.1 73 22.8 61 61 SW 10 17 30.14 1021 8 13 0.00 0.00
11:59 am 11:59 Mostly Sunny 89 31.7 74 23.3 61 61 W 8 13 30.14 1021 8 13 0.00 0.00
12:59 pm 12:59 Partly Cloudy 90 32.2 74 23.3 59 59 WNW 9 15 30.14 1021 8 13 0.00 0.00
1:59 pm 13:59 Partly Cloudy 91 32.8 73 22.8 56 56 SW 9 15 30.13 1020 9 14 0.00 0.00
2:59 pm 14:59 Partly Cloudy 92 33.3 71 21.7 51 51 WSW 9 15 30.11 1020 9 14 0.00 0.00
3:59 pm 15:59 Partly Cloudy 92 33.3 69 20.6 47 47 WSW 10 17 30.09 1019 9 14 0.00 0.00
4:59 pm 16:59 Partly Cloudy 92 33.3 67 19.4 44 44 WSW 10 17 30.09 1019 9 14 0.00 0.00
5:59 pm 17:59 Mostly Sunny 91 32.8 68 20 47 47 VRB 5 7 30.08 1019 9 14 0.00 0.00
6:59 pm 18:59 Mostly Sunny 88 31.1 68 20 52 52 SW 7 11 30.08 1019 8 13 0.00 0.00
7:59 pm 19:59 Clear 86 30 68 20 55 55 SSW 5 7 30.10 1019 9 14 0.00 0.00
8:59 pm 20:59 Clear 84 28.9 68 20 59 59 SSW 6 9 30.12 1020 9 14 0.00 0.00
9:59 pm 21:59 Clear 84 28.9 70 21.1 63 63 SSW 6 9 30.14 1021 9 14 0.00 0.00
10:59 pm 22:59 Clear 83 28.3 71 21.7 67 67 SSW 7 11 30.13 1020 9 14 0.00 0.00
11:59 pm 23:59 Clear 82 27.8 72 22.2 72 72 SW 7 11 30.15 1021 8 13 0.00 0.00

Powered by AerisWeather